Lid_Strength_Index
-1 -1 -0 2 7 7 10 10 7 8 7 5 5 6 6 6 8 11 1 0 -0 -0 -1 -1 -1 -2 -1 -1 -1 -2 -2 -1 -1 -2 -2 -2 -2 -2 -2 -2 -2 -2 -2 -2 -2 -2 -2 -2 -2
-0 0 1 3 9 10 10 8 8 7 5 4 5 5 6 7 4 3 2 -0 -1 -0 -1 -1 -1 -2 -2 -2 -1 -1 -2 -1 -1 -1 -1 -2 -2 -2 -1 -1 -2 -2 -2 -2 -2 -2 -2 -2 -2
0 1 4 6 8 11 9 7 7 6 5 5 6 4 5 6 3 3 1 -0 -1 -0 -1 -1 -1 -2 -2 -2 -1 -1 -2 -2 -2 -1 -1 -2 -2 -2 -2 -1 -1 -2 -1 -2 -2 -1 -1 -1 -1
1 2 4 8 10 8 8 6 6 6 5 4 5 6 4 2 3 1 -0 -0 -0 -0 -1 -1 -1 -2 -2 -2 -1 -1 -1 -2 -2 -2 -2 -2 -1 -2 -2 -1 -1 -1 -1 -1 -1 -1 -1 -1 -1
1 4 8 9 9 8 6 5 5 6 6 5 5 6 5 2 1 0 0 -0 0 -0 -0 -1 -1 -2 -2 -1 -1 -1 -1 -2 -2 -2 -2 -2 -1 -1 -1 -1 -1 -1 -1 -1 -1 -1 -1 -1 -1
5 4 9 11 9 7 7 5 5 6 5 5 5 5 5 2 2 1 0 0 -0 -0 -0 -1 0 -1 -1 -2 -2 -2 -2 -2 -2 -2 -2 -2 -2 -1 -1 -1 -1 -1 -1 -1 -1 -1 -1 -1 -1
6 7 10 9 9 8 7 4 6 6 5 5 4 6 4 3 1 0 0 -0 -0 -1 0 -1 -1 -1 -0 -1 -1 -2 -2 -2 -2 -2 -2 -2 -2 -2 -2 -2 -1 -1 -1 -1 -1 -1 -1 -1 -1
4 6 9 8 9 9 6 6 5 5 6 3 3 6 6 3 1 0 0 0 -0 -0 -0 -0 -1 -1 -1 -1 -0 -0 -1 -2 -2 -1 -0 -1 -1 -1 -2 -1 -2 -2 -1 -1 -1 -1 -1 -1 -1
4 8 10 9 9 8 6 6 5 4 5 4 3 4 3 2 1 1 1 1 1 1 -0 -0 -0 -1 -1 -1 -0 0 -0 -1 -1 -1 0 1 -1 -1 -1 -1 -2 -2 -2 -1 -1 -1 -1 -1 -0
6 9 9 6 6 7 6 6 6 6 6 5 5 3 2 2 2 3 3 3 2 2 1 -0 -1 -1 -1 -1 -1 -1 -1 -1 -1 -1 -1 -1 -1 -1 -1 -0 -0 -1 -1 -2 -1 -1 -1 -0 0
6 8 6 6 5 5 6 6 5 6 7 5 5 4 3 3 3 3 3 2 2 1 1 1 -0 -1 -1 -1 -1 -1 -1 -1 -2 -1 -1 -1 -1 -1 -1 -1 -1 -1 1 -1 -1 -1 -1 -1 -1
9 7 7 6 5 6 6 5 6 6 5 4 3 3 3 3 3 3 3 2 2 1 1 1 1 -0 -1 -1 -1 -1 -1 -1 -1 -1 -1 -1 -1 -1 -1 -1 -1 -1 -1 -1 -0 -0 -1 -1 -0
9 8 7 6 6 5 6 6 6 6 4 4 4 3 3 3 3 2 2 1 1 2 1 0 1 1 -0 -0 -1 -1 -1 -1 -1 -1 -1 -1 -1 -1 -1 -1 -1 -0 0 1 1 1 1 1 1
9 9 8 7 7 6 7 6 6 5 4 4 4 4 3 3 3 3 2 2 2 1 1 0 0 1 1 1 1 -0 -0 -1 -1 -1 -1 -1 -1 -1 -1 -0 0 1 1 1 1 1 1 1 1
8 11 10 9 8 8 6 8 8 5 5 5 5 4 4 3 2 3 2 2 1 1 1 1 0 -0 0 0 0 1 -1 -0 -1 -1 -1 -1 -1 -1 -0 -0 0 0 -0 0 0 1 1 1 1
9 10 13 10 9 8 8 13 9 5 5 5 5 5 4 3 3 2 2 1 1 1 1 0 0 0 -0 -0 -0 -0 -1 -1 -1 -1 -1 -0 0 -0 -0 -0 -0 -1 -0 -0 0 1 1 1 1
9 12 12 11 8 8 8 12 9 8 7 7 5 4 5 4 3 2 2 1 1 1 1 1 0 0 0 -0 -0 -0 -1 -1 -1 -0 -1 -0 -0 1 -0 -1 -1 -1 -0 -0 0 0 0 1 1
12 11 10 11 10 9 9 10 9 9 9 9 8 6 5 4 4 2 2 1 1 1 1 0 0 0 0 -0 -0 -0 -0 -0 -1 -1 -1 -1 -0 0 1 -1 -1 -1 -0 0 0 0 0 1 1
10 11 11 9 8 9 10 10 9 8 8 9 9 9 8 6 4 2 2 1 1 1 1 1 1 1 0 1 1 1 1 1 0 -0 -1 -1 -1 -0 1 0 -0 -0 0 0 0 1 1 1 1
11 12 12 10 9 10 10 10 9 7 8 8 7 8 8 8 7 6 4 2 2 1 1 1 1 1 1 1 1 1 1 0 0 -0 -0 -1 -1 -1 0 0 0 0 0 1 1 1 2 2 1
11 12 13 13 11 10 11 12 11 9 8 7 7 6 7 6 6 6 5 4 3 2 1 1 1 1 1 0 0 0 0 0 1 1 0 -0 -1 -0 0 -0 -0 0 1 1 1 1 2 3 1
13 10 10 11 13 15 11 17 12 10 10 9 8 8 6 6 5 5 4 4 3 2 1 1 1 1 0 0 1 1 2 2 1 1 0 0 -0 -0 -1 -0 -0 -0 0 1 0 1 1 2 3
11 9 10 10 12 12 13 15 14 11 12 10 9 8 7 6 5 5 5 4 3 2 1 1 1 1 0 0 1 1 2 1 1 1 1 1 0 -0 -0 -0 -0 0 -0 0 0 1 1 1 2
8 9 10 10 12 17 14 14 15 13 12 11 9 9 8 7 6 6 5 4 4 3 3 2 2 2 2 1 1 1 2 2 2 1 2 1 1 0 -0 -0 -0 -0 -0 0 1 1 1 1 1
9 11 17 18 19 18 14 14 15 11 10 10 10 9 8 7 7 7 6 6 6 5 4 3 3 4 3 2 1 1 1 1 1 1 1 1 1 1 1 0 0 0 0 0 0 0 0 0 1
12 11 15 19 18 17 14 17 15 11 9 9 9 8 8 7 7 6 6 6 5 4 4 4 3 3 3 2 1 1 1 1 1 1 1 1 1 1 0 0 0 0 1 1 -0 0 1 1 1
12 15 9 14 14 15 15 14 11 10 10 10 9 9 8 8 8 7 6 5 6 5 5 4 4 3 2 2 1 1 1 1 1 1 1 1 0 1 1 2 4 3 2 3 3 2 3 2 2
10 8 15 14 19 19 16 15 14 12 11 10 9 9 8 7 7 7 6 5 4 5 4 4 3 3 3 2 1 1 1 1 1 1 1 1 2 4 5 4 3 4 4 5 5 5 5 5 5
12 14 13 12 14 17 17 15 10 10 10 10 9 8 7 7 7 7 6 5 4 4 4 3 3 3 2 1 1 1 1 1 1 2 2 4 4 4 4 4 5 6 6 6 7 7 7 7 7
9 12 12 16 17 14 15 14 9 9 9 8 8 7 7 6 6 6 6 5 6 5 4 4 4 4 3 2 2 2 3 3 3 4 4 3 4 5 5 6 7 7 7 8 8 8 8 8 7